This is the latest recevied weather packets stored in our database for station/object WB8ZGM-13. If no packets are shown the sender has not sent any weather packets the latest 10 day(s).
| Time | Temp. | Humidity | Pressure | Rain* | Wind** | Luminosity | Snow |
|---|---|---|---|---|---|---|---|
| 1777475305 | 21.11° C | 98% | 994.7 hPa | 0 mm | - | - | - |
| 1777474405 | 20.56° C | 97% | 994.6 hPa | 0 mm | - | - | - |
| 1777473475 | 21.11° C | 95% | 994 hPa | 0 mm | - | - | - |
| 1777472575 | 20.56° C | 97% | 993.8 hPa | 0 mm | - | - | - |
| 1777471645 | 20.56° C | 98% | 994 hPa | 0 mm | - | - | - |
| 1777470745 | 20° C | 99% | 994.1 hPa | 0 mm | - | - | - |
| 1777469815 | 18.89° C | 99% | 994.3 hPa | 0 mm | - | - | - |
| 1777468885 | 18.89° C | 99% | 994.2 hPa | 0 mm | - | - | - |
| 1777467955 | 18.33° C | 99% | 994.2 hPa | 0 mm | - | - | - |
| 1777467054 | 18.33° C | 99% | 994 hPa | 0 mm | - | - | - |
| 1777466155 | 18.33° C | 99% | 994 hPa | 0 mm | - | - | - |
| 1777465254 | 18.33° C | 99% | 994 hPa | 0 mm | - | - | - |
| 1777464324 | 17.78° C | 99% | 993.9 hPa | 0 mm | - | - | - |
| 1777463424 | 17.78° C | 99% | 993.9 hPa | 0 mm | - | - | - |
| 1777462494 | 17.78° C | 99% | 994 hPa | 0 mm | - | - | - |
| 1777461594 | 17.22° C | 99% | 993.9 hPa | 0 mm | - | - | - |
| 1777460694 | 17.22° C | 99% | 993.5 hPa | 0 mm | - | - | - |
| 1777459764 | 17.22° C | 99% | 993.6 hPa | 0 mm | - | - | - |
| 1777458834 | 17.22° C | 99% | 993.3 hPa | 0 mm | - | - | - |
| 1777457904 | 17.22° C | 99% | 993.3 hPa | 0 mm | - | - | - |
| 1777457004 | 17.22° C | 99% | 993 hPa | 0 mm | - | - | - |
| 1777456074 | 17.22° C | 99% | 993.1 hPa | 0 mm | - | - | - |
| 1777455144 | 17.22° C | 99% | 993 hPa | 0 mm | - | - | - |
| 1777454214 | 17.22° C | 99% | 992.8 hPa | 0 mm | - | - | - |
| 1777453314 | 17.22° C | 99% | 992.7 hPa | 0 mm | - | - | - |
* Rain latest hour (hover to see other rain measurements)
** Current wind speed in m/s (hover to see current wind gust speed)